When you browse on this site, cookies collect data to enhance your experience and personalize the content and advertising you see.
Visit our Privacy Policy to learn more. By continuing to use the site, you agree to this use of cookies and data.
EN

Hourly Weather Sliven

Today, 5 August, Wednesday

Time Temperature Precipitation Wind Pressure Humidity
00:00 +19°C° 0 mm 1 mps 729 mmHg 89%
01:00 +18°C° 0 mm 1 mps 729 mmHg 91%
02:00 +18°C° 0 mm 1 mps 729 mmHg 93%
03:00 +18°C° 0 mm 1 mps 729 mmHg 93%
04:00 +18°C° 0 mm 1 mps 729 mmHg 94%
05:00 +18°C° 0 mm 1 mps 729 mmHg 94%
06:00 +19°C° 0 mm 1 mps 729 mmHg 86%
07:00 +20°C° 0 mm 2 mps 729 mmHg 79%
08:00 +23°C° 0 mm 2 mps 729 mmHg 71%
09:00 +25°C° 0 mm 3 mps 729 mmHg 61%
10:00 +27°C° 0 mm 3 mps 730 mmHg 51%
11:00 +28°C° 0 mm 3 mps 730 mmHg 41%
12:00 +29°C° 0 mm 4 mps 730 mmHg 37%
13:00 +30°C° 0 mm 4 mps 729 mmHg 34%
14:00 +33°C° 0 mm 4 mps 729 mmHg 30%
15:00 +32°C° 0 mm 5 mps 729 mmHg 33%
16:00 +30°C° 0 mm 5 mps 729 mmHg 35%
17:00 +29°C° 0 mm 6 mps 728 mmHg 37%
18:00 +27°C° 0 mm 5 mps 728 mmHg 46%
19:00 +23°C° 0 mm 4 mps 729 mmHg 54%
20:00 +21°C° 0 mm 3 mps 729 mmHg 63%
21:00 +20°C° 0 mm 3 mps 729 mmHg 69%
22:00 +19°C° 0 mm 2 mps 729 mmHg 74%
23:00 +18°C° 0 mm 2 mps 730 mmHg 80%

Tomorrow, 6 August, Thursday

Time Temperature Precipitation Wind Pressure Humidity
00:00 +18°C° 0 mm 2 mps 730 mmHg 81%
01:00 +17°C° 0 mm 2 mps 730 mmHg 82%
02:00 +18°C° 0 mm 1 mps 730 mmHg 83%
03:00 +18°C° 0 mm 1 mps 730 mmHg 82%
04:00 +18°C° 0 mm 1 mps 730 mmHg 81%
05:00 +17°C° 0 mm 2 mps 730 mmHg 80%
06:00 +19°C° 0 mm 2 mps 730 mmHg 73%
07:00 +21°C° 0 mm 2 mps 730 mmHg 66%
08:00 +24°C° 0 mm 3 mps 731 mmHg 60%
09:00 +26°C° 0 mm 3 mps 731 mmHg 52%
10:00 +28°C° 0 mm 4 mps 731 mmHg 45%
11:00 +29°C° 0 mm 5 mps 731 mmHg 38%
12:00 +30°C° 0 mm 5 mps 731 mmHg 34%
13:00 +32°C° 0 mm 6 mps 731 mmHg 31%
14:00 +33°C° 0 mm 6 mps 731 mmHg 28%
15:00 +32°C° 0 mm 6 mps 730 mmHg 30%
16:00 +32°C° 0 mm 6 mps 730 mmHg 33%
17:00 +30°C° 0 mm 7 mps 730 mmHg 35%
18:00 +28°C° 0 mm 5 mps 730 mmHg 44%
19:00 +25°C° 0 mm 4 mps 730 mmHg 53%
20:00 +22°C° 0 mm 3 mps 731 mmHg 62%
21:00 +21°C° 0 mm 3 mps 731 mmHg 70%
22:00 +20°C° 0 mm 2 mps 731 mmHg 78%
23:00 +19°C° 0 mm 2 mps 731 mmHg 86%

Day after tomorrow, 7 August, Friday

Time Temperature Precipitation Wind Pressure Humidity
00:00 +19°C° 0 mm 2 mps 731 mmHg 86%
01:00 +19°C° 0 mm 2 mps 731 mmHg 86%
02:00 +19°C° 0 mm 2 mps 731 mmHg 86%
03:00 +19°C° 0 mm 2 mps 731 mmHg 86%
04:00 +19°C° 0 mm 2 mps 731 mmHg 86%
05:00 +19°C° 0 mm 2 mps 731 mmHg 87%
06:00 +20°C° 0 mm 3 mps 731 mmHg 79%
07:00 +22°C° 0 mm 3 mps 731 mmHg 72%
08:00 +25°C° 0 mm 3 mps 731 mmHg 65%
09:00 +27°C° 0 mm 4 mps 731 mmHg 56%
10:00 +29°C° 0 mm 5 mps 731 mmHg 47%
11:00 +32°C° 0 mm 5 mps 731 mmHg 39%
12:00 +33°C° 0 mm 6 mps 731 mmHg 36%
13:00 +34°C° 0 mm 6 mps 731 mmHg 34%
14:00 +35°C° 0 mm 7 mps 731 mmHg 32%
15:00 +34°C° 0 mm 7 mps 730 mmHg 33%
16:00 +33°C° 0 mm 7 mps 730 mmHg 35%
17:00 +33°C° 0 mm 7 mps 730 mmHg 36%
18:00 +30°C° 0 mm 6 mps 730 mmHg 42%
19:00 +28°C° 0 mm 5 mps 730 mmHg 48%
20:00 +26°C° 0 mm 4 mps 730 mmHg 53%
21:00 +25°C° 0 mm 4 mps 730 mmHg 61%
22:00 +24°C° 0 mm 3 mps 730 mmHg 69%
23:00 +23°C° 0 mm 2 mps 730 mmHg 77%

8 August, Saturday

Time Temperature Precipitation Wind Pressure Humidity
00:00 +21°C° 0 mm 2 mps 730 mmHg 79%
01:00 +21°C° 0 mm 2 mps 730 mmHg 81%
02:00 +20°C° 0 mm 2 mps 730 mmHg 83%
03:00 +20°C° 0 mm 3 mps 730 mmHg 84%
04:00 +20°C° 0 mm 3 mps 730 mmHg 86%
05:00 +20°C° 0 mm 3 mps 729 mmHg 87%
06:00 +21°C° 0 mm 4 mps 730 mmHg 80%
07:00 +23°C° 0 mm 4 mps 730 mmHg 72%
08:00 +26°C° 0 mm 5 mps 730 mmHg 65%
09:00 +28°C° 0 mm 5 mps 730 mmHg 57%
10:00 +30°C° 0 mm 6 mps 730 mmHg 50%
11:00 +32°C° 0 mm 7 mps 730 mmHg 42%
12:00 +32°C° 0.1 mm 6 mps 730 mmHg 41%
13:00 +32°C° 0.1 mm 6 mps 730 mmHg 41%
14:00 +33°C° 0.1 mm 6 mps 729 mmHg 40%
15:00 +32°C° 0.1 mm 6 mps 729 mmHg 42%
16:00 +30°C° 0.1 mm 6 mps 729 mmHg 43%
17:00 +29°C° 0.1 mm 6 mps 729 mmHg 45%
18:00 +28°C° 0 mm 5 mps 729 mmHg 48%
19:00 +26°C° 0 mm 4 mps 729 mmHg 51%
20:00 +25°C° 0 mm 3 mps 729 mmHg 54%
21:00 +24°C° 0 mm 3 mps 729 mmHg 58%
22:00 +23°C° 0 mm 2 mps 729 mmHg 61%
23:00 +21°C° 0 mm 2 mps 729 mmHg 65%

9 August, Sunday

Time Temperature Precipitation Wind Pressure Humidity
00:00 +21°C° 0 mm 2 mps 729 mmHg 68%
01:00 +20°C° 0 mm 2 mps 729 mmHg 71%
02:00 +20°C° 0 mm 3 mps 729 mmHg 73%
03:00 +20°C° 0 mm 3 mps 729 mmHg 73%
04:00 +20°C° 0 mm 3 mps 729 mmHg 74%
05:00 +20°C° 0 mm 4 mps 729 mmHg 74%
06:00 +21°C° 0 mm 4 mps 729 mmHg 67%
07:00 +22°C° 0 mm 4 mps 729 mmHg 61%
08:00 +25°C° 0 mm 5 mps 730 mmHg 54%
09:00 +26°C° 0 mm 5 mps 730 mmHg 49%
10:00 +28°C° 0 mm 6 mps 730 mmHg 44%
11:00 +30°C° 0 mm 6 mps 730 mmHg 39%
12:00 +32°C° 0 mm 6 mps 730 mmHg 37%
13:00 +33°C° 0 mm 6 mps 730 mmHg 34%
14:00 +34°C° 0 mm 5 mps 729 mmHg 32%
15:00 +33°C° 0 mm 5 mps 729 mmHg 34%
16:00 +32°C° 0 mm 5 mps 729 mmHg 37%
17:00 +30°C° 0 mm 4 mps 729 mmHg 39%
18:00 +29°C° 0 mm 4 mps 729 mmHg 43%
19:00 +27°C° 0 mm 3 mps 729 mmHg 47%
20:00 +26°C° 0 mm 3 mps 730 mmHg 50%
21:00 +24°C° 0 mm 2 mps 730 mmHg 55%
22:00 +23°C° 0 mm 2 mps 730 mmHg 59%
23:00 +21°C° 0 mm 1 mps 730 mmHg 63%

10 August, Monday

Time Temperature Precipitation Wind Pressure Humidity
00:00 +21°C° 0 mm 1 mps 730 mmHg 64%
01:00 +21°C° 0 mm 1 mps 730 mmHg 65%
02:00 +20°C° 0 mm 1 mps 730 mmHg 66%
03:00 +19°C° 0 mm 2 mps 730 mmHg 66%
04:00 +19°C° 0 mm 2 mps 730 mmHg 67%
05:00 +19°C° 0 mm 2 mps 730 mmHg 68%
06:00 +21°C° 0 mm 2 mps 730 mmHg 61%
07:00 +24°C° 0 mm 2 mps 731 mmHg 54%
08:00 +26°C° 0 mm 3 mps 731 mmHg 47%
09:00 +27°C° 0 mm 3 mps 731 mmHg 42%
10:00 +29°C° 0 mm 4 mps 731 mmHg 38%
11:00 +30°C° 0 mm 4 mps 731 mmHg 33%
12:00 +32°C° 0 mm 4 mps 731 mmHg 30%
13:00 +33°C° 0 mm 4 mps 731 mmHg 27%
14:00 +34°C° 0 mm 4 mps 730 mmHg 25%
15:00 +34°C° 0 mm 3 mps 730 mmHg 25%
16:00 +33°C° 0 mm 3 mps 730 mmHg 25%
17:00 +33°C° 0 mm 3 mps 730 mmHg 25%
18:00 +29°C° 0 mm 3 mps 730 mmHg 35%
19:00 +26°C° 0 mm 2 mps 730 mmHg 45%
20:00 +23°C° 0 mm 2 mps 730 mmHg 56%
21:00 +21°C° 0 mm 2 mps 731 mmHg 60%
22:00 +22°C° 0 mm 1 mps 731 mmHg 64%
23:00 +21°C° 0 mm 1 mps 731 mmHg 67%
Show more